"TOA5","MOW","CPU:UNC_MeetingWaters","DataHourly"
"TIMESTAMP","SondeTempC","SpCond","DOSat","DOmg","pH","Turb","BattVolt_Min"
"TS","","","","","","",""
"","Smp","Smp","Smp","Smp","Smp","Smp","Min"
"2005-08-01 00:00:00",23.2800006866,0.097000002861,101.900001526,8.68999958038,8.02000045776,51.0,12.6999998093
"2005-08-01 01:00:00",23.0900001526,0.0120000001043,102.0,8.72999954224,8.03999996185,38.4000015259,12.6899995804
"2005-08-01 02:00:00",22.8999996185,0.00300000002608,102.300003052,8.80000019073,8.06999969482,31.2000007629,12.6899995804
"2005-08-01 03:00:00",22.7399997711,0.00200000009499,102.199996948,8.81000041962,8.10999965668,25.7999992371,12.6899995804
"2005-08-01 04:00:00",22.6200008392,0.00200000009499,103.199996948,8.92000007629,8.14999961853,20.2999992371,12.6800003052
"2005-08-01 05:00:00",22.4599990845,0.00200000009499,102.900001526,8.92000007629,8.19999980927,17.2999992371,12.6700000763
"2005-08-01 06:00:00",22.2900009155,0.00200000009499,103.800003052,9.02999973297,8.25,15.8999996185,12.6700000763
"2005-08-01 07:00:00",22.0300006866,0.00200000009499,104.099998474,9.10000038147,8.30000019073,14.8000001907,12.6700000763
"2005-08-01 08:00:00",22.0799999237,0.00200000009499,105.0,9.15999984741,8.34000015259,14.1999998093,12.7100000381
"2005-08-01 09:00:00",22.1399993896,0.00200000009499,105.699996948,9.22000026703,8.36999988556,13.1999998093,12.720000267
"2005-08-01 10:00:00",22.2800006866,0.0140000004321,107.099998474,9.31000041962,8.39999961853,13.1000003815,12.8500003815
"2005-08-01 11:00:00",22.6100006104,0.00300000002608,108.699996948,9.39999961853,8.47000026703,12.3000001907,13.2299995422
"2005-08-01 12:00:00",22.9599990845,0.428000003099,108.699996948,9.31999969482,8.52000045776,26.1000003815,13.2100000381
"2005-08-01 13:00:00",24.6000003815,0.00499999988824,109.300003052,9.10000038147,8.60999965668,41.4000015259,13.5799999237
"2005-08-01 14:00:00",24.9200000763,0.00400000018999,108.0,8.93999958038,8.61999988556,32.5,13.3599996567
"2005-08-01 15:00:00",25.3199996948,0.00300000002608,107.300003052,8.81999969482,8.56999969482,24.6000003815,13.4799995422
"2005-08-01 16:00:00",25.1700000763,0.00300000002608,106.0,8.73999977112,8.53999996185,19.0,13.2600002289
"2005-08-01 17:00:00",24.75,0.00300000002608,106.0,8.80000019073,8.59000015259,19.6000003815,13.2600002289
"2005-08-01 18:00:00",24.5,0.00300000002608,105.300003052,8.77999973297,8.97999954224,16.3999996185,13.1099996567
"2005-08-01 19:00:00",24.2999992371,0.00300000002608,104.300003052,8.72999954224,8.81000041962,14.6999998093,13.0500001907
"2005-08-01 20:00:00",23.8799991608,0.00300000002608,104.199996948,8.80000019073,8.77999973297,26.7000007629,13.0200004578
"2005-08-01 21:00:00",23.4400005341,0.00300000002608,104.199996948,8.86999988556,8.82999992371,25.7000007629,13.0
"2005-08-01 22:00:00",23.2000007629,0.00300000002608,103.699996948,8.86999988556,8.90999984741,18.0,12.9799995422
"2005-08-01 23:00:00",22.8600006104,0.00300000002608,104.0,8.94999980927,8.88000011444,15.6999998093,12.970000267
"2005-08-02 00:00:00",22.7199993134,0.00300000002608,104.0,8.97000026703,8.89000034332,16.3999996185,12.9499998093
"2005-08-02 01:00:00",22.4699993134,0.00300000002608,104.099998474,9.02000045776,8.88000011444,19.1000003815,12.9300003052
"2005-08-02 02:00:00",22.1900005341,0.00300000002608,104.5,9.10999965668,8.86999988556,17.2999992371,12.9300003052
"2005-08-02 03:00:00",21.8899993896,0.00300000002608,105.0,9.19999980927,8.92000007629,14.6999998093,12.9099998474
"2005-08-02 04:00:00",21.7999992371,0.00200000009499,104.199996948,9.14999961853,8.90999984741,12.1000003815,12.8999996185
"2005-08-02 05:00:00",21.4200000763,0.00200000009499,105.199996948,9.31000041962,8.82999992371,10.8999996185,12.8800001144
"2005-08-02 06:00:00",21.1800003052,0.00200000009499,105.699996948,9.39000034332,8.85000038147,10.8999996185,12.8699998856
"2005-08-02 07:00:00",21.1700000763,0.00200000009499,105.099998474,9.34000015259,8.84000015259,12.5,12.8699998856
"2005-08-02 08:00:00",21.2999992371,0.00200000009499,105.900001526,9.39000034332,8.80000019073,14.3999996185,12.8800001144
"2005-08-02 09:00:00",21.6399993896,0.00300000002608,106.699996948,9.39999961853,8.68999958038,12.6999998093,12.8900003433
"2005-08-02 10:00:00",22.2000007629,0.00300000002608,107.5,9.36999988556,8.65999984741,13.0,13.1999998093
"2005-08-02 11:00:00",22.5599994659,0.00200000009499,109.199996948,9.44999980927,8.72000026703,11.5,13.5
"2005-08-02 12:00:00",23.3600006104,0.00400000018999,110.800003052,9.43999958038,8.72999954224,18.7000007629,13.970000267
"2005-08-02 13:00:00",24.6100006104,0.00300000002608,117.5,9.77999973297,8.77999973297,51.2000007629,13.9300003052
"2005-08-02 14:00:00",25.3999996185,0.00200000009499,108.900001526,8.93999958038,8.35999965668,90.9000015259,13.9200000763
"2005-08-02 15:00:00",25.8700008392,0.0010000000475,107.5,8.73999977112,7.23999977112,118.300003052,13.8699998856
"2005-08-02 16:00:00",26.0100002289,0.0010000000475,105.400001526,8.55000019073,7.30000019073,141.699996948,13.8500003815
"2005-08-02 17:00:00",25.5400009155,0.0,104.400001526,8.53999996185,7.55000019073,108.099998474,13.8800001144
"2005-08-02 18:00:00",25.5900001526,0.0010000000475,103.800003052,8.47999954224,7.46000003815,69.5,13.0600004196
"2005-08-02 19:00:00",24.9899997711,0.0010000000475,103.699996948,8.56999969482,7.48999977112,45.9000015259,13.0200004578
"2005-08-02 20:00:00",24.6100006104,0.0010000000475,103.300003052,8.60000038147,7.51999998093,39.7999992371,12.9899997711
"2005-08-02 21:00:00",24.2999992371,0.0010000000475,102.900001526,8.61999988556,7.51000022888,36.0,12.970000267
"2005-08-02 22:00:00",23.8500003815,0.0010000000475,103.699996948,8.75,7.57000017166,21.7000007629,12.9600000381
"2005-08-02 23:00:00",23.6200008392,0.0010000000475,103.800003052,8.80000019073,7.71999979019,18.1000003815,12.9399995804
"2005-08-03 00:00:00",23.3099994659,0.0010000000475,103.599998474,8.82999992371,7.80000019073,14.8000001907,12.9300003052
"2005-08-03 01:00:00",23.1399993896,0.0010000000475,104.099998474,8.89999961853,7.86000013351,12.0,12.8999996185
"2005-08-03 02:00:00",22.8199996948,0.0010000000475,104.099998474,8.96000003815,7.94999980927,12.1999998093,12.8900003433
"2005-08-03 03:00:00",22.5400009155,0.0010000000475,104.400001526,9.02999973297,7.98999977112,10.3999996185,12.8699998856
"2005-08-03 04:00:00",22.1900005341,0.0010000000475,104.599998474,9.10999965668,8.03999996185,11.0,12.8599996567
"2005-08-03 05:00:00",22.1499996185,0.0010000000475,104.099998474,9.07999992371,8.06000041962,11.6999998093,12.8500003815
"2005-08-03 06:00:00",21.9799995422,0.0010000000475,104.199996948,9.10999965668,8.07999992371,10.6999998093,12.8500003815
"2005-08-03 07:00:00",21.9699993134,0.0010000000475,103.800003052,9.07999992371,8.13000011444,10.3000001907,12.8400001526
"2005-08-03 08:00:00",22.0499992371,0.0010000000475,105.400001526,9.21000003815,8.07999992371,10.8999996185,12.8500003815
"2005-08-03 09:00:00",22.5499992371,0.0010000000475,105.900001526,9.17000007629,8.03999996185,10.6999998093,12.8800001144
"2005-08-03 10:00:00",23.2999992371,0.0010000000475,106.800003052,9.10999965668,7.98000001907,10.5,13.0900001526
"2005-08-03 11:00:00",24.0,0.0010000000475,109.199996948,9.18999958038,7.82000017166,11.1999998093,13.6099996567
"2005-08-03 12:00:00",25.9699993134,0.0,108.800003052,8.82999992371,7.42999982834,10.0,13.8999996185
"2005-08-03 13:00:00",26.5799999237,0.0,108.699996948,8.72999954224,7.03999996185,9.39999961853,13.8599996567
"2005-08-03 14:00:00",25.5,0.0,109.300003052,8.94999980927,7.94000005722,11.0,13.9200000763
"2005-08-03 15:00:00",24.9799995422,0.0,105.300003052,8.69999980927,9.05000019073,19.5,13.0799999237
"2005-08-03 16:00:00",25.1700000763,0.00300000002608,101.699996948,8.38000011444,8.67000007629,32.5999984741,13.0799999237
"2005-08-03 17:00:00",24.4599990845,0.00300000002608,101.099998474,8.43999958038,8.64000034332,29.1000003815,14.0900001526
"2005-08-03 18:00:00",24.6900005341,0.00300000002608,102.0,8.47999954224,8.86999988556,20.5,13.8000001907
"2005-08-03 19:00:00",24.6599998474,0.00300000002608,99.8000030518,8.30000019073,8.59000015259,40.9000015259,13.0100002289
"2005-08-03 20:00:00",24.25,0.00300000002608,98.5999984741,8.26000022888,8.43999958038,35.9000015259,12.970000267
"2005-08-03 21:00:00",24.0,0.00300000002608,99.0,8.32999992371,8.46000003815,26.5,12.970000267
"2005-08-03 22:00:00",23.7900009155,0.00300000002608,99.5,8.40999984741,8.52999973297,18.7000007629,12.9499998093
"2005-08-03 23:00:00",23.5599994659,0.00300000002608,100.0,8.47999954224,8.61999988556,13.8000001907,12.9300003052
"2005-08-04 00:00:00",23.3999996185,0.00300000002608,100.699996948,8.57999992371,8.77999973297,12.0,12.9099998474
"2005-08-04 01:00:00",23.2000007629,0.00300000002608,101.300003052,8.64999961853,8.72999954224,12.1999998093,12.8900003433
"2005-08-04 02:00:00",22.9899997711,0.00300000002608,102.0,8.76000022888,8.75,9.69999980927,12.8800001144
"2005-08-04 03:00:00",22.8299999237,0.00300000002608,101.900001526,8.77000045776,8.80000019073,8.69999980927,12.8599996567
"2005-08-04 04:00:00",22.6399993896,0.00300000002608,101.599998474,8.77999973297,8.81000041962,8.30000019073,12.8400001526
"2005-08-04 05:00:00",22.3899993896,0.00300000002608,102.900001526,8.93000030518,8.76000022888,8.39999961853,12.8299999237
"2005-08-04 06:00:00",22.0699996948,0.00300000002608,102.900001526,8.98999977112,8.80000019073,8.30000019073,12.8199996948
"2005-08-04 07:00:00",22.0900001526,0.00300000002608,103.0,9.0,8.86999988556,8.19999980927,12.8199996948
"2005-08-04 08:00:00",22.0599994659,0.00300000002608,103.5,9.03999996185,8.82999992371,8.5,12.8400001526
"2005-08-04 09:00:00",22.4400005341,0.195999994874,105.199996948,9.11999988556,8.73999977112,13.6000003815,12.8699998856
"2005-08-04 10:00:00",22.8999996185,0.00300000002608,106.800003052,9.18000030518,8.68999958038,13.8999996185,13.029999733
"2005-08-04 11:00:00",23.1700000763,0.00400000018999,108.400001526,9.27000045776,8.72000026703,68.5,13.6000003815
"2005-08-04 12:00:00",25.1299991608,0.00300000002608,109.699996948,9.05000019073,8.60000038147,51.0999984741,13.8999996185
"2005-08-04 13:00:00",25.3999996185,0.00300000002608,132.300003052,10.8599996567,8.35000038147,40.7000007629,13.8800001144
"2005-08-04 14:00:00",25.3999996185,0.00300000002608,121.5,9.97000026703,9.11999988556,67.5999984741,13.9399995804
"2005-08-04 15:00:00",25.7999992371,0.0010000000475,108.199996948,8.81000041962,8.60999965668,57.0999984741,13.8500003815
"2005-08-04 16:00:00",24.4400005341,0.345999985933,109.800003052,9.15999984741,8.89999961853,43.7000007629,13.1199998856
"2005-08-04 17:00:00",27.4099998474,0.0960000008345,106.900001526,8.44999980927,9.31000041962,816.0,14.1199998856
"2005-08-04 18:00:00",26.9500007629,0.131999999285,100.5,8.02000045776,8.75,587.599975586,14.1300001144
"2005-08-04 19:00:00",26.4099998474,0.163000002503,98.0999984741,7.88999986649,8.43000030518,421.200012207,13.0200004578
"2005-08-04 20:00:00",25.9500007629,0.194000005722,98.1999969482,7.96999979019,8.22999954224,361.700012207,12.9899997711
"2005-08-04 21:00:00",25.5300006866,0.135000005364,98.1999969482,8.02999973297,8.14000034332,291.100006104,12.970000267
"2005-08-04 22:00:00",25.1100006104,0.123999997973,98.9000015259,8.14999961853,8.10999965668,197.699996948,12.9499998093
"2005-08-04 23:00:00",24.7800006866,0.129999995232,99.4000015259,8.23999977112,8.11999988556,120.599998474,12.9399995804
"2005-08-05 00:00:00",24.4500007629,0.148000001907,100.099998474,8.35999965668,8.14000034332,101.099998474,12.9200000763
"2005-08-05 01:00:00",24.1700000763,0.15000000596,100.5,8.43000030518,8.18999958038,81.3000030518,12.8999996185
"2005-08-05 02:00:00",23.9300003052,0.00499999988824,101.0,8.52000045776,8.22000026703,65.1999969482,12.8800001144
"2005-08-05 03:00:00",23.7299995422,0.168999999762,101.800003052,8.60999965668,8.26000022888,57.7999992371,12.8599996567
"2005-08-05 04:00:00",23.5100002289,0.0649999976158,101.900001526,8.65999984741,8.27999973297,56.0,12.8500003815
"2005-08-05 05:00:00",23.2999992371,0.00400000018999,101.800003052,8.68000030518,8.31000041962,47.2000007629,12.8299999237
"2005-08-05 06:00:00",23.1700000763,0.00400000018999,102.0,8.72999954224,8.34000015259,34.0,12.8199996948
"2005-08-05 07:00:00",23.0400009155,0.00300000002608,102.599998474,8.80000019073,8.36999988556,32.0,12.8100004196
"2005-08-05 08:00:00",22.9500007629,0.00300000002608,102.900001526,8.82999992371,8.39000034332,30.0,12.8400001526
"2005-08-05 09:00:00",23.0200004578,0.00300000002608,103.599998474,8.88000011444,8.40999984741,27.7999992371,12.8800001144
"2005-08-05 10:00:00",23.3199996948,0.00300000002608,105.199996948,8.97000026703,8.43000030518,27.6000003815,13.0600004196
"2005-08-05 11:00:00",23.6000003815,0.199000000954,107.0,9.06999969482,8.46000003815,25.2999992371,13.5900001526
"2005-08-05 12:00:00",24.3700008392,0.00300000002608,108.599998474,9.07999992371,8.47999954224,29.7999992371,13.9499998093
"2005-08-05 13:00:00",24.75,0.00300000002608,108.400001526,9.0,8.51000022888,74.8000030518,13.8800001144
"2005-08-05 14:00:00",25.4500007629,0.00300000002608,108.199996948,8.86999988556,8.55000019073,129.5,13.8900003433
"2005-08-05 15:00:00",26.2800006866,0.00300000002608,108.300003052,8.73999977112,8.60999965668,134.899993896,13.1099996567
"2005-08-05 16:00:00",26.0900001526,0.00200000009499,106.5,8.63000011444,8.52999973297,118.900001526,13.1099996567
"2005-08-05 17:00:00",25.5900001526,0.00200000009499,104.800003052,8.56999969482,8.55000019073,91.5999984741,13.1800003052
"2005-08-05 18:00:00",25.6000003815,0.00200000009499,103.599998474,8.47000026703,8.63000011444,91.8000030518,13.1000003815
"2005-08-05 19:00:00",25.5200004578,0.00200000009499,101.800003052,8.34000015259,8.72000026703,95.0999984741,13.0200004578
"2005-08-05 20:00:00",25.1499996185,0.00200000009499,98.5999984741,8.11999988556,8.85999965668,109.400001526,12.9899997711
"2005-08-05 21:00:00",24.7099990845,0.00200000009499,101.699996948,8.44999980927,8.85000038147,78.5999984741,12.970000267
"2005-08-05 22:00:00",24.4799995422,0.00200000009499,102.099998474,8.52000045776,8.89000034332,74.4000015259,12.9600000381
"2005-08-05 23:00:00",24.0200004578,0.00200000009499,102.900001526,8.65999984741,8.90999984741,61.0999984741,12.9300003052
"2005-08-06 00:00:00",24.0499992371,0.00200000009499,102.800003052,8.64999961853,8.94999980927,42.2999992371,12.9099998474
"2005-08-06 01:00:00",23.6200008392,0.00200000009499,103.599998474,8.78999996185,8.92000007629,34.0,12.8900003433
"2005-08-06 02:00:00",23.4300003052,0.00200000009499,103.5,8.81000041962,8.86999988556,29.2999992371,12.8699998856
"2005-08-06 03:00:00",23.1800003052,0.00200000009499,104.099998474,8.89999961853,8.76000022888,28.8999996185,12.8500003815
"2005-08-06 04:00:00",23.0599994659,0.00200000009499,103.900001526,8.89999961853,8.77000045776,28.0,12.8299999237
"2005-08-06 05:00:00",22.7700004578,0.00200000009499,104.400001526,8.98999977112,8.81000041962,31.5,12.8199996948
"2005-08-06 06:00:00",22.8700008392,0.00200000009499,104.599998474,8.98999977112,8.84000015259,28.8999996185,12.8100004196
"2005-08-06 07:00:00",22.7800006866,0.00200000009499,105.0,9.05000019073,8.69999980927,23.7999992371,12.8000001907
"2005-08-06 08:00:00",22.7600002289,0.00200000009499,104.800003052,9.02999973297,8.69999980927,20.5,12.8299999237
"2005-08-06 09:00:00",23.0300006866,0.00300000002608,106.199996948,9.10999965668,9.02999973297,19.7999992371,12.9200000763
"2005-08-06 10:00:00",23.5300006866,0.00300000002608,108.5,9.22000026703,8.72000026703,18.1000003815,13.1300001144
"2005-08-06 11:00:00",23.5200004578,0.00300000002608,110.0,9.34000015259,8.73999977112,18.5,13.5600004196
"2005-08-06 12:00:00",24.75,0.00200000009499,111.0,9.22000026703,8.81000041962,17.8999996185,13.9300003052
"2005-08-06 13:00:00",25.4500007629,0.00200000009499,109.599998474,8.97999954224,8.72000026703,16.2999992371,13.9200000763
"2005-08-06 14:00:00",25.2900009155,0.0010000000475,110.099998474,9.05000019073,8.81000041962,15.8999996185,13.8800001144
"2005-08-06 15:00:00",26.1800003052,0.0,108.300003052,8.76000022888,8.81999969482,14.8999996185,13.9399995804
"2005-08-06 16:00:00",26.2700004578,0.0,105.599998474,8.52000045776,8.51000022888,14.1000003815,13.8699998856
"2005-08-06 17:00:00",25.9200000763,0.0,103.900001526,8.44999980927,8.18999958038,23.7999992371,13.1700000763
"2005-08-06 18:00:00",25.1700000763,0.0,103.0,8.48999977112,7.96000003815,29.1000003815,13.0500001907
"2005-08-06 19:00:00",24.75,0.291999995708,103.699996948,8.60000038147,8.84000015259,31.6000003815,13.0200004578
"2005-08-06 20:00:00",24.5200004578,0.00400000018999,104.800003052,8.73999977112,8.81999969482,26.6000003815,12.9899997711
"2005-08-06 21:00:00",23.2800006866,0.00300000002608,104.199996948,8.89999961853,9.02000045776,20.2999992371,12.9600000381
"2005-08-06 22:00:00",22.9599990845,0.00300000002608,104.199996948,8.93999958038,9.22000026703,16.7999992371,12.9499998093
"2005-08-06 23:00:00",22.6000003815,0.00300000002608,104.599998474,9.03999996185,9.25,15.1999998093,12.9200000763
"2005-08-07 00:00:00",22.4699993134,0.00300000002608,104.599998474,9.06999969482,9.23999977112,16.2000007629,12.8900003433
"2005-08-07 01:00:00",22.3600006104,0.00300000002608,104.300003052,9.06000041962,9.21000003815,22.8999996185,12.8699998856
"2005-08-07 02:00:00",21.9099998474,0.00300000002608,105.199996948,9.21000003815,9.14999961853,23.2000007629,12.8500003815
"2005-08-07 03:00:00",21.8899993896,0.00300000002608,104.900001526,9.18999958038,9.09000015259,23.7999992371,12.8400001526
"2005-08-07 04:00:00",21.7800006866,0.00300000002608,105.400001526,9.26000022888,9.06999969482,19.7999992371,12.8199996948
"2005-08-07 05:00:00",21.5499992371,0.00300000002608,105.5,9.31000041962,8.98999977112,16.8999996185,12.8000001907
"2005-08-07 06:00:00",21.5699996948,0.00300000002608,105.5,9.30000019073,8.94999980927,13.5,12.7899999619
"2005-08-07 07:00:00",21.6100006104,0.00300000002608,106.0,9.34000015259,8.89999961853,12.5,12.779999733
"2005-08-07 08:00:00",21.8099994659,0.00300000002608,106.800003052,9.36999988556,8.85000038147,11.8999996185,12.8400001526
"2005-08-07 09:00:00",22.25,0.00300000002608,107.400001526,9.35000038147,8.73999977112,11.5,12.8900003433
"2005-08-07 10:00:00",22.5799999237,0.00300000002608,108.0,9.34000015259,8.48999977112,10.8000001907,12.970000267
"2005-08-07 11:00:00",22.8700008392,0.00300000002608,109.800003052,9.44999980927,8.21000003815,10.6999998093,13.3000001907
"2005-08-07 12:00:00",23.4300003052,0.00200000009499,110.599998474,9.40999984741,7.98000001907,10.8000001907,13.3299999237
"2005-08-07 13:00:00",24.4300003052,0.0010000000475,112.300003052,9.38000011444,7.78000020981,10.1999998093,13.529999733
"2005-08-07 14:00:00",24.3999996185,0.0010000000475,111.5,9.31999969482,7.57999992371,9.80000019073,14.029999733
"2005-08-07 15:00:00",25.4899997711,0.0,110.900001526,9.07999992371,6.94000005722,9.89999961853,13.970000267
"2005-08-07 16:00:00",25.7800006866,0.0,107.599998474,8.77000045776,6.71000003815,9.5,13.8800001144
"2005-08-07 17:00:00",25.2900009155,0.0,106.5,8.76000022888,6.86999988556,10.1000003815,13.1199998856
"2005-08-07 18:00:00",24.8799991608,0.0,106.5,8.81999969482,7.05999994278,9.60000038147,13.1199998856
"2005-08-07 19:00:00",24.5799999237,0.0,105.5,8.78999996185,7.23000001907,9.80000019073,13.029999733
"2005-08-07 20:00:00",24.1599998474,0.0,102.199996948,8.57999992371,7.36000013351,9.60000038147,13.0
"2005-08-07 21:00:00",23.4699993134,0.0,104.5,8.89000034332,7.55999994278,9.39999961853,12.9799995422
"2005-08-07 22:00:00",23.0900001526,0.0,104.300003052,8.93000030518,7.71999979019,9.5,12.9600000381
"2005-08-07 23:00:00",22.8899993896,0.0,104.900001526,9.01000022888,7.82999992371,9.0,12.9300003052
"2005-08-08 00:00:00",22.4500007629,0.0,105.199996948,9.11999988556,7.90000009537,9.30000019073,12.9099998474
"2005-08-08 01:00:00",22.2199993134,0.0,105.300003052,9.17000007629,7.96000003815,9.19999980927,12.8900003433
"2005-08-08 02:00:00",22.2299995422,0.0,105.599998474,9.19999980927,7.98999977112,10.1999998093,12.8699998856
"2005-08-08 03:00:00",21.9699993134,0.0,105.5,9.22999954224,8.02999973297,9.30000019073,12.8500003815
"2005-08-08 04:00:00",21.8899993896,0.0,105.400001526,9.23999977112,8.61999988556,9.69999980927,12.8400001526
"2005-08-08 05:00:00",21.8099994659,0.0,105.800003052,9.28999996185,8.72999954224,9.39999961853,12.8100004196
"2005-08-08 06:00:00",21.7999992371,0.0,105.400001526,9.25,8.85000038147,11.8000001907,12.8000001907
"2005-08-08 07:00:00",21.9099998474,0.0,105.900001526,9.27000045776,9.02000045776,10.3000001907,12.779999733
"2005-08-08 08:00:00",21.9799995422,0.0010000000475,106.900001526,9.35000038147,8.82999992371,10.1999998093,12.8199996948
"2005-08-08 09:00:00",22.3199996948,0.0010000000475,107.5,9.34000015259,8.77999973297,9.89999961853,12.8400001526
"2005-08-08 10:00:00",22.5799999237,0.0,108.599998474,9.39000034332,8.89000034332,9.89999961853,12.9899997711
"2005-08-08 11:00:00",23.0200004578,0.0,110.900001526,9.51000022888,8.90999984741,9.30000019073,13.5699996948
"2005-08-08 12:00:00",24.1900005341,0.0,121.300003052,10.1800003052,8.64999961853,8.60000038147,13.7299995422
"2005-08-08 13:00:00",24.0499992371,0.0,112.800003052,9.48999977112,8.39000034332,9.0,13.4300003052
"2005-08-08 14:00:00",24.8299999237,0.0,126.800003052,10.5200004578,8.30000019073,8.80000019073,14.0399999619
"2005-08-08 15:00:00",24.5100002289,0.0,120.300003052,10.0399999619,8.03999996185,8.69999980927,13.2600002289
"2005-08-08 16:00:00",24.0599994659,0.0,110.5,9.28999996185,8.97999954224,9.10000038147,13.1599998474
"2005-08-08 17:00:00",23.4799995422,0.0,107.300003052,9.11999988556,8.97000026703,10.0,13.029999733
"2005-08-08 18:00:00",23.5200004578,0.0,106.900001526,9.09000015259,9.13000011444,10.3999996185,13.0399999619
"2005-08-08 19:00:00",23.4099998474,0.231000006199,106.400001526,9.06000041962,8.88000011444,21.2999992371,12.9899997711
"2005-08-08 20:00:00",23.4099998474,0.00300000002608,100.699996948,8.57999992371,8.86999988556,98.0,12.970000267
"2005-08-08 21:00:00",23.2600002289,0.00300000002608,99.0,8.44999980927,9.05000019073,63.2000007629,12.9399995804
"2005-08-08 22:00:00",23.0699996948,0.00300000002608,99.0,8.48999977112,9.05000019073,41.4000015259,12.9200000763
"2005-08-08 23:00:00",22.9400005341,0.00300000002608,98.1999969482,8.43999958038,9.03999996185,32.2000007629,12.8999996185
"2005-08-09 00:00:00",22.8600006104,0.00300000002608,97.4000015259,8.36999988556,9.0,27.3999996185,12.8800001144
"2005-08-09 01:00:00",22.7900009155,0.00300000002608,97.1999969482,8.36999988556,8.98999977112,23.6000003815,12.8599996567
"2005-08-09 02:00:00",22.7299995422,0.00300000002608,97.0,8.36999988556,8.96000003815,22.3999996185,12.8400001526
"2005-08-09 03:00:00",22.7299995422,0.00300000002608,97.5,8.40999984741,8.92000007629,22.5,12.8199996948
"2005-08-09 04:00:00",22.6200008392,0.00300000002608,98.0,8.47000026703,8.85999965668,20.1000003815,12.8000001907
"2005-08-09 05:00:00",22.5200004578,0.00300000002608,98.9000015259,8.56000041962,8.82999992371,17.5,12.7899999619
"2005-08-09 06:00:00",22.5300006866,0.00300000002608,99.9000015259,8.64000034332,8.73999977112,13.6000003815,12.7899999619
"2005-08-09 07:00:00",22.5300006866,0.00300000002608,101.300003052,8.77000045776,8.75,12.0,12.779999733
"2005-08-09 08:00:00",22.6299991608,0.00300000002608,101.699996948,8.77999973297,8.68999958038,10.3000001907,12.779999733
"2005-08-09 09:00:00",23.4400005341,0.0340000018477,111.199996948,9.46000003815,9.39999961853,1386.0,12.779999733
"2005-08-09 10:00:00",23.8600006104,0.123000003397,108.900001526,9.18999958038,8.82999992371,989.0,12.779999733
"2005-08-09 11:00:00",23.9899997711,0.109999999404,108.5,9.13000011444,8.63000011444,602.099975586,13.220000267